Regional Weather Roundup
Issued by NWS

Home | Current Version | Previous Version | Graphics & Text | Print | Product List | Glossary On
Versions: 1 2 3 4 5 6 7 8 9 10 11 12 13 14 15 16 17 18 19 20 21 22 23 24 25 26 27 28 29 30 31 32 33 34 35 36 37 38 39 40 41 42 43 44 45 46 47 48 49 50
000
ASUS43 KMKX 201421
RWRWI

WISCONSIN REGIONAL WEATHER ROUNDUP
NATIONAL WEATHER SERVICE MILWAUKEE/SULLIVAN WI
900 AM CDT SAT SEP 20 2014

NOTE: "FAIR" INDICATES FEW OR NO CLOUDS BELOW 12,000 FEET WITH NO
SIGNIFICANT WEATHER AND/OR OBSTRUCTIONS TO VISIBILITY.

WIZ001-002-006>008-014>016-023>028-201500-
NORTHWEST WISCONSIN

CITY           SKY/WX    TMP DP  RH WIND       PRES   REMARKS
SUPERIOR ARPT  MOSUNNY   64  57  80 W9        29.70R
ASHLAND        CLOUDY    64  59  83 W9        29.68R
HAYWARD        CLOUDY    63  59  87 VRB5      29.72R
SIREN          PTSUNNY   63  59  87 W7        29.74R
RICE LAKE      CLOUDY    64  59  81 W8        29.75R
LADYSMITH      CLOUDY    67  62  82 W12       29.73R
EAU CLAIRE     CLOUDY    68  64  87 W9        29.72R
MENOMONIE      CLOUDY    69  63  81 W8        29.74R
NEW RICHMOND   CLOUDY    63  60  90 NW8       29.77R
OSCEOLA        CLOUDY    64  62  94 W7        29.79R
$$

WIZ003>005-009-010-017-018-201500-
NORTH CENTRAL WISCONSIN

CITY           SKY/WX    TMP DP  RH WIND       PRES   REMARKS
WOODRUFF       PTSUNNY   69  64  84 W9G18     29.67S
RHINELANDER    CLOUDY    66  61  84 W13       29.69R
EAGLE RIVER    CLOUDY    67  60  79 W12       29.66R
LAND O LAKES   CLOUDY    68  62  81 W12G17    29.66R
PHILLIPS       CLOUDY    66  61  84 W8        29.70R
TOMAHAWK       CLOUDY    66  61  82 W10       29.70S
MEDFORD        CLOUDY    64  62  92 W9        29.72R
MERRILL        CLOUDY    66  63  90 W12G17    29.70S
$$

WIZ029-030-035-036-043>047-201500-
CENTRAL WISCONSIN

CITY           SKY/WX    TMP DP  RH WIND       PRES   REMARKS
WAUSAU         CLOUDY    66  62  87 W12       29.69S
MOSINEE        CLOUDY    64  64 100 W12G18    29.72S
MARSHFIELD     CLOUDY    66  63  90 W12       29.73R
STEVENS POINT  CLOUDY    64  61  91 SW7       29.73R
WAUPACA        SUNNY     66  65  96 S10       29.73S
WAUTOMA        SUNNY     66  64  93 SW9       29.75S
WISC RAPIDS    SUNNY     65  62  90 SW9       29.74S
CAMP DOUGLAS   PTSUNNY   70  66  88 SW16      29.75F
$$

WIZ011>013-019>022-031-037>040-048>050-201500-
NORTHEAST WISCONSIN

CITY           SKY/WX    TMP DP  RH WIND       PRES   REMARKS
ANTIGO         CLOUDY    64  61  90 W14G22    29.70F
STURGEON BAY   CLOUDY    66  61  82 SW16G23   29.68S
GREEN BAY      CLOUDY    65  63  93 SW10G21   29.71S
MANITOWOC      CLOUDY    67  62  84 SW13      29.73F
APPLETON       PTSUNNY   64  63  94 SW15      29.74S
CLINTONVILLE   PTSUNNY   66  63  88 SW13      29.70S
OSHKOSH        CLOUDY    66  62  87 SW12G21   29.74F
$$

WIZ032>034-041-042-053>061-201500-
SOUTHWEST WISCONSIN

CITY           SKY/WX    TMP DP  RH WIND       PRES   REMARKS
LA CROSSE      CLOUDY    69  62  78 W3        29.77R
SPARTA         SUNNY     68  61  77 W8        29.76R
VIROQUA        FAIR      66  65  96 SW14      29.81R
BOSCOBEL       PTSUNNY   68  63  84 SW5       29.81R
PRAIRIE DU CHI PTSUNNY   68  62  81 CALM      29.81R
PLATTEVILLE    FAIR      67  65  93 SW9       29.84R
$$

WIZ056-057-062-063-064-067-068-201500-
SOUTH CENTRAL WISCONSIN

CITY           SKY/WX    TMP DP  RH WIND       PRES   REMARKS
BARABOO/DELLS  CLOUDY    66  62  86 SW10      29.78R
LONE ROCK      PTSUNNY   70  63  78 CALM      29.79S HAZE
WATERTOWN      LGT RAIN  64  63  98 S6        29.81R
MADISON        CLOUDY    67  62  84 S10       29.80F
MIDDLETON      FAIR      67  64  88 SW9       29.80S
MONROE         CLOUDY    64  63  94 SW14      29.83R FOG
JANESVILLE     SUNNY     68  63  83 SW9       29.83R
$$

WIZ051-052-058>065-066-070>072-201500-
SOUTHEAST WISCONSIN

CITY           SKY/WX    TMP DP  RH WIND       PRES   REMARKS
MILWAUKEE      CLOUDY    65  58  78 SW10      29.82R
WAUKESHA       MOSUNNY   63  59  88 SW10      29.84R
MILWAUKEE/TIMM SUNNY     66  59  77 S12       29.83R
RACINE         CLOUDY    67  59  75 SW14G24   29.84R
BURLINGTON     LGT RAIN  62  58  88 SW10      29.83R
KENOSHA        CLOUDY    65  58  78 SW13G24   29.82S
FOND DU LAC    CLOUDY    64  61  90 SW13G20   29.76F
SHEBOYGAN      CLOUDY    66  60  81 SW16      29.75F
WEST BEND      CLOUDY    64  59  82 SW15      29.80R
JUNEAU         CLOUDY    64  61  93 S8        29.81R FOG
$$

LSZ147-162-201500-
LAKE SUPERIOR

STATION/POSITION TIME  TEMP    WIND        PRES    WAVE
                       AIR SEA DIR/SP/G            HT/PER
                 (UTC) (F)     (DEG/KT/KT) (MB)    (FT/S)
W MID LAKE BUOY  1350   53 47  240/ 16/ 17 1001.2R   1/ 2
DEVILS ISLAND    1400   57     240/ 16/ 17 1003.6R
PORT WING        1300   61     260/ 12/ 16 1004.7
SAXON HARBOR     1340   68     240/  6/  9 1004.4R
$$

LMZ867-665-643>646-201500-
LAKE MICHIGAN

STATION/POSITION TIME  TEMP    WIND        PRES    WAVE
                       AIR SEA DIR/SP/G            HT/PER
                 (UTC) (F)     (DEG/KT/KT) (MB)    (FT/S)
N MID LAKE BUOY  1350   59 58  200/ 19/ 23 1004.2F   6/ 7
NORTHPORT PIER   1300   65     260/  5/ 14 1003.7F
SISTER BAY       1227          250/ 13/ 16   N/A
KEWAUNEE LAKESHO 1400   65     230/ 11/ 18 1005.1R
SHEBOYGAN LAKESH 1400   66 54  220/ 15/ 17 1007.6F
PORT WASHINGTON  1300   67     270/  6/ 11 1009.1R
ATWATER BUOY     1400   63     230/ 14/ 21 1010.5R
MILWAUKEE LAKESH 1400   66     240/ 14/ 17   N/A
S MID LAKE BUOY  1350   64 64  200/ 23/ 27 1009.1F   4/ 6
KENOSHA   LAKESH 1400   66     230/ 15/ 25 1009.8R
$$

TC  - TEMPERATURE IN CELSIUS
VSB - VISIBILITY IN STATUTE MILES
WCI - WIND CHILL INDEX
HX  - HEAT INDEX



USA.gov is the U.S. government's official web portal to all federal, state and local government web resources and services.